"Pseudo-MPEC" for ZTF10Dl

Created 2026 May 13 18:35:11 UT using Find_Orb

Click here for an explanation of pseudo-MPECs

 
 Astrometry: 
     ZTF10Dl*0C2026 05 08.33120214 24 25.844-07 00 11.56   ~58Bo 15.90iUNEOCPI41
     ZTF10Dl 0C2026 05 08.33155014 24 31.811-07 00 33.92   ~58Bo 15.90iUNEOCPI41
     ZTF10Dl 0C2026 05 08.36498014 34 04.746-07 36 26.02   ~58Bo 16.05RUNEOCPI41
     ZTF10Dl 0C2026 05 08.36532714 34 10.570-07 36 47.34   ~58Bo 16.05RUNEOCPI41

Station data:
(I41) Palomar Mountain--ZTF  (N33.357336 W116.859780)  US/California.
   Observers B. T. Bolin, Z. T. F. Collaboration. Measurers B. T. Bolin,
   Z.-Y. Lin, F. J. Masci. 1.2-m f/2.4 Schmidt.

Orbital elements:  ZTF10Dl
   Perigee 2026 May 8.172407 +/- 34.4 TT =  4:08:15.9 (JD 2461168.672407)
Epoch 2026 May  8.0 TT = JDT 2461168.5                           AutoNEOCP
q463723.0963 +/- 1.56e+7            (J2000 equator)
H   28.08 G 0.15                    Peri.  192.844998 +/- 60
                                    Node    11.516198 +/- 70
e  65.56850400 +/- 0.254            Incl.   15.254698 +/- 1.3
From 4 observations 2026 May 8 (49.1 min); mean residual 0".36
Residuals in arcseconds: 
260508 I41  .34+  .30-    260508 I41  .53+  .22-    
260508 I41  .35-  .30+    260508 I41  .52-  .22+    

Ephemerides (geocentric):
Date (UTC) HH   RA             Dec           delta  r     elong  mag " sig PA
---- --------  ------------   ------------  ------ ------ -----  --- --------
2026 05 13 19  19 11 37.510   -15 11 24.27  .02445 1.0247 124.9 22.0  49d  95
2026 05 13 20  19 11 50.297   -15 11 20.13  .02463 1.0248 124.9 22.1  48d  95
2026 05 13 21  19 12 02.889   -15 11 16.04  .02481 1.0249 124.9 22.1  48d  95
2026 05 13 22  19 12 15.290   -15 11 12.00  .02498 1.0250 124.9 22.1  48d  95
2026 05 13 23  19 12 27.504   -15 11 08.01  .02516 1.0251 124.9 22.1  48d  96
2026 05 14 00  19 12 39.535   -15 11 04.07  .02534 1.0252 124.9 22.1  48d  96
2026 05 14 01  19 12 51.388   -15 11 00.18  .02552 1.0254 124.9 22.1  48d  96
2026 05 14 02  19 13 03.064   -15 10 56.34  .02570 1.0255 124.9 22.2  48d  96
2026 05 14 03  19 13 14.569   -15 10 52.55  .02587 1.0256 124.9 22.2  48d  96
2026 05 14 04  19 13 25.905   -15 10 48.82  .02605 1.0257 124.9 22.2  48d  96
2026 05 14 05  19 13 37.076   -15 10 45.13  .02623 1.0258 124.9 22.2  49d  96
2026 05 14 06  19 13 48.085   -15 10 41.49  .02641 1.0259 124.9 22.2  52d  93
2026 05 14 07  19 13 58.935   -15 10 37.90  .02659 1.0260 124.9 22.2  50d  94
2026 05 14 08  19 14 09.630   -15 10 34.37  .02676 1.0261 124.9 22.2  49d  95
2026 05 14 09  19 14 20.172   -15 10 30.88  .02694 1.0263 124.9 22.3  49d  95
2026 05 14 10  19 14 30.564   -15 10 27.44  .02712 1.0264 124.9 22.3  48d  95
2026 05 14 11  19 14 40.809   -15 10 24.06  .02730 1.0265 124.9 22.3  48d  95
2026 05 14 12  19 14 50.911   -15 10 20.73  .02748 1.0266 124.9 22.3  48d  95
2026 05 14 13  19 15 00.871   -15 10 17.44  .02765 1.0267 124.9 22.3  49d  96
2026 05 14 14  19 15 10.692   -15 10 14.21  .02783 1.0268 124.9 22.3  50d  96
2026 05 14 15  19 15 20.378   -15 10 11.02  .02801 1.0269 124.9 22.3  51d  96
2026 05 14 16  19 15 29.929   -15 10 07.89  .02819 1.0271 124.9 22.4  52d  96
2026 05 14 17  19 15 39.350   -15 10 04.80  .02837 1.0272 124.9 22.4  52d  96
2026 05 14 18  19 15 48.642   -15 10 01.77  .02855 1.0273 124.9 22.4  52d  94
2026 05 14 19  19 15 57.807   -15 09 58.78  .02872 1.0274 124.9 22.4  52d  94
2026 05 14 20  19 16 06.848   -15 09 55.85  .02890 1.0275 124.9 22.4  51d  94
2026 05 14 21  19 16 15.767   -15 09 52.96  .02908 1.0276 124.9 22.4  51d  94
2026 05 14 22  19 16 24.567   -15 09 50.12  .02926 1.0278 124.9 22.4  51d  94
2026 05 14 23  19 16 33.249   -15 09 47.33  .02944 1.0279 124.9 22.4  51d  94
2026 05 15 00  19 16 41.815   -15 09 44.59  .02961 1.0280 124.9 22.5  50d  94
2026 05 15 01  19 16 50.268   -15 09 41.90  .02979 1.0281 124.9 22.5  50d  95
2026 05 15 02  19 16 58.609   -15 09 39.26  .02997 1.0282 124.9 22.5  50d  95
2026 05 15 03  19 17 06.841   -15 09 36.66  .03015 1.0283 124.9 22.5  50d  95
2026 05 15 04  19 17 14.964   -15 09 34.11  .03033 1.0285 124.9 22.5  50d  95
2026 05 15 05  19 17 22.982   -15 09 31.61  .03051 1.0286 124.9 22.5  49d  95
2026 05 15 06  19 17 30.896   -15 09 29.16  .03068 1.0287 124.9 22.5  49d  95
2026 05 15 07  19 17 38.707   -15 09 26.76  .03086 1.0288 124.9 22.5  49d  95
2026 05 15 08  19 17 46.417   -15 09 24.40  .03104 1.0289 125.0 22.6  49d  95
2026 05 15 09  19 17 54.029   -15 09 22.08  .03122 1.0291 125.0 22.6  49d  95
2026 05 15 10  19 18 01.543   -15 09 19.82  .03140 1.0292 125.0 22.6  49d  95
2026 05 15 11  19 18 08.961   -15 09 17.60  .03158 1.0293 125.0 22.6  50d  95
2026 05 15 12  19 18 16.285   -15 09 15.42  .03175 1.0294 125.0 22.6  54d  93
2026 05 15 13  19 18 23.517   -15 09 13.29  .03193 1.0295 125.0 22.6  52d  94
2026 05 15 14  19 18 30.657   -15 09 11.21  .03211 1.0297 125.0 22.6  51d  94
2026 05 15 15  19 18 37.707   -15 09 09.17  .03229 1.0298 125.0 22.6  50d  94
2026 05 15 16  19 18 44.669   -15 09 07.18  .03247 1.0299 125.0 22.7  50d  95
2026 05 15 17  19 18 51.544   -15 09 05.23  .03265 1.0300 125.1 22.7  50d  95
2026 05 15 18  19 18 58.333   -15 09 03.33  .03282 1.0301 125.1 22.7  50d  95